Time,TemperatureF,DewpointF,PressureIn,WindDirection,WindDirectionDegrees,WindSpeedMPH,WindSpeedGustMPH,Humidity,HourlyPrecipIn,Conditions,Clouds,dailyrainin,SoftwareType,DateUTC
2013-06-17 00:12:00,68.3,68.0,30.08,NNW,327,3.0,4.0,97,0.24,,,0.87,weatherlink.com 1.10,2013-06-17 04:12:00,
2013-06-17 00:27:00,68.2,67.0,30.08,NW,312,1.0,3.0,97,0.14,,,0.01,weatherlink.com 1.10,2013-06-17 04:27:00,
2013-06-17 00:58:00,68.2,67.0,30.07,WNW,293,2.0,2.0,97,0.05,,,0.01,weatherlink.com 1.10,2013-06-17 04:58:00,
2013-06-17 01:13:00,68.3,68.0,30.07,SW,214,2.0,5.0,97,0.01,,,0.01,weatherlink.com 1.10,2013-06-17 05:13:00,
2013-06-17 01:28:00,68.4,68.0,30.07,WNW,293,1.0,6.0,97,0.00,,,0.01,weatherlink.com 1.10,2013-06-17 05:28:00,
2013-06-17 01:43:00,68.4,68.0,30.08,SW,230,5.0,5.0,97,0.00,,,0.01,weatherlink.com 1.10,2013-06-17 05:43:00,
2013-06-17 01:58:00,68.7,68.0,30.08,WNW,297,10.0,13.0,98,0.05,,,0.06,weatherlink.com 1.10,2013-06-17 05:58:00,
2013-06-17 02:13:00,68.8,68.0,30.07,SE,131,6.0,10.0,98,0.07,,,0.08,weatherlink.com 1.10,2013-06-17 06:13:00,
2013-06-17 02:28:00,68.9,68.0,30.06,SE,144,4.0,10.0,98,0.08,,,0.09,weatherlink.com 1.10,2013-06-17 06:28:00,
2013-06-17 02:43:00,69.0,69.0,30.05,ESE,103,6.0,10.0,98,0.08,,,0.09,weatherlink.com 1.10,2013-06-17 06:43:00,
2013-06-17 02:58:00,69.0,69.0,30.06,South,172,0.0,7.0,98,0.03,,,0.09,weatherlink.com 1.10,2013-06-17 06:58:00,
2013-06-17 03:13:00,68.9,68.0,30.05,NW,314,1.0,2.0,98,0.01,,,0.09,weatherlink.com 1.10,2013-06-17 07:13:00,
2013-06-17 03:28:00,68.5,68.0,30.05,SW,220,7.0,8.0,98,0.00,,,0.09,weatherlink.com 1.10,2013-06-17 07:28:00,
2013-06-17 03:43:00,68.4,68.0,30.05,SW,223,5.0,8.0,98,0.00,,,0.09,weatherlink.com 1.10,2013-06-17 07:43:00,
2013-06-17 03:58:00,68.4,68.0,30.05,WSW,239,8.0,9.0,98,0.00,,,0.09,weatherlink.com 1.10,2013-06-17 07:58:00,
2013-06-17 04:13:00,68.7,68.0,30.05,WSW,250,2.0,9.0,98,0.00,,,0.09,weatherlink.com 1.10,2013-06-17 08:13:00,
2013-06-17 04:28:00,68.8,68.0,30.05,WSW,242,6.0,8.0,98,0.00,,,0.09,weatherlink.com 1.10,2013-06-17 08:28:00,
2013-06-17 04:43:00,68.8,68.0,30.05,SW,217,2.0,4.0,98,0.00,,,0.09,weatherlink.com 1.10,2013-06-17 08:43:00,
2013-06-17 04:58:00,68.8,68.0,30.06,West,277,0.0,6.0,98,0.00,,,0.09,weatherlink.com 1.10,2013-06-17 08:58:00,
2013-06-17 05:13:00,68.9,68.0,30.06,WNW,297,4.0,5.0,98,0.00,,,0.09,weatherlink.com 1.10,2013-06-17 09:13:00,
2013-06-17 05:28:00,68.9,68.0,30.05,NW,321,1.0,4.0,98,0.00,,,0.09,weatherlink.com 1.10,2013-06-17 09:28:00,
2013-06-17 05:43:00,68.7,68.0,30.05,NW,326,5.0,7.0,98,0.00,,,0.09,weatherlink.com 1.10,2013-06-17 09:43:00,
2013-06-17 05:58:00,68.6,68.0,30.05,NW,325,2.0,6.0,98,0.00,,,0.09,weatherlink.com 1.10,2013-06-17 09:58:00,
2013-06-17 06:13:00,68.8,68.0,30.04,WNW,297,5.0,7.0,98,0.00,,,0.09,weatherlink.com 1.10,2013-06-17 10:13:00,
2013-06-17 06:28:00,68.6,68.0,30.05,NW,314,4.0,6.0,98,0.00,,,0.09,weatherlink.com 1.10,2013-06-17 10:28:00,
2013-06-17 06:43:00,68.4,68.0,30.05,WNW,303,3.0,6.0,98,0.00,,,0.09,weatherlink.com 1.10,2013-06-17 10:43:00,
2013-06-17 06:58:00,68.3,68.0,30.05,West,281,2.0,6.0,98,0.00,,,0.09,weatherlink.com 1.10,2013-06-17 10:58:00,
2013-06-17 07:13:00,68.3,68.0,30.05,WNW,288,5.0,7.0,98,0.00,,,0.09,weatherlink.com 1.10,2013-06-17 11:13:00,
2013-06-17 07:28:00,68.3,68.0,30.06,West,271,6.0,8.0,98,0.00,,,0.09,weatherlink.com 1.10,2013-06-17 11:28:00,
2013-06-17 07:43:00,68.4,68.0,30.05,SW,221,4.0,12.0,98,0.01,,,0.10,weatherlink.com 1.10,2013-06-17 11:43:00,
2013-06-17 07:58:00,68.6,68.0,30.06,South,177,4.0,10.0,98,0.01,,,0.10,weatherlink.com 1.10,2013-06-17 11:58:00,
2013-06-17 08:13:00,69.1,69.0,30.07,SW,233,3.0,6.0,98,0.01,,,0.10,weatherlink.com 1.10,2013-06-17 12:13:00,
2013-06-17 08:28:00,69.0,68.0,30.07,WNW,294,5.0,7.0,97,0.01,,,0.10,weatherlink.com 1.10,2013-06-17 12:28:00,
2013-06-17 08:43:00,69.3,68.0,30.06,WSW,255,2.0,5.0,96,0.00,,,0.10,weatherlink.com 1.10,2013-06-17 12:43:00,
2013-06-17 08:58:00,69.4,68.0,30.07,WSW,245,5.0,6.0,95,0.00,,,0.10,weatherlink.com 1.10,2013-06-17 12:58:00,
2013-06-17 09:13:00,69.3,68.0,30.08,West,260,4.0,6.0,95,0.00,,,0.10,weatherlink.com 1.10,2013-06-17 13:13:00,
2013-06-17 09:28:00,69.4,68.0,30.07,South,184,0.0,10.0,95,0.00,,,0.10,weatherlink.com 1.10,2013-06-17 13:28:00,
2013-06-17 09:43:00,69.5,68.0,30.08,South,181,3.0,9.0,94,0.00,,,0.10,weatherlink.com 1.10,2013-06-17 13:43:00,
2013-06-17 09:58:00,69.1,67.0,30.07,WNW,293,7.0,10.0,93,0.00,,,0.10,weatherlink.com 1.10,2013-06-17 13:58:00,
2013-06-17 10:13:00,69.0,67.0,30.07,West,262,5.0,8.0,94,0.00,,,0.10,weatherlink.com 1.10,2013-06-17 14:13:00,
2013-06-17 10:28:00,69.2,68.0,30.08,SW,233,4.0,7.0,95,0.00,,,0.10,weatherlink.com 1.10,2013-06-17 14:28:00,
2013-06-17 10:43:00,69.8,68.0,30.08,SE,131,1.0,9.0,95,0.00,,,0.10,weatherlink.com 1.10,2013-06-17 14:43:00,
2013-06-17 10:58:00,70.5,68.0,30.08,West,264,3.0,10.0,92,0.00,,,0.10,weatherlink.com 1.10,2013-06-17 14:58:00,
2013-06-17 11:13:00,71.4,69.0,30.08,WNW,289,2.0,7.0,92,0.00,,,0.10,weatherlink.com 1.10,2013-06-17 15:13:00,
2013-06-17 11:28:00,72.7,69.0,30.08,WNW,285,4.0,6.0,89,0.00,,,0.10,weatherlink.com 1.10,2013-06-17 15:28:00,
2013-06-17 11:43:00,73.1,70.0,30.07,WSW,254,4.0,8.0,90,0.00,,,0.10,weatherlink.com 1.10,2013-06-17 15:43:00,
2013-06-17 11:58:00,74.9,70.0,30.07,South,174,5.0,11.0,85,0.00,,,0.10,weatherlink.com 1.10,2013-06-17 15:58:00,
2013-06-17 12:14:00,74.7,70.0,30.07,WSW,246,4.0,10.0,84,0.00,,,0.10,weatherlink.com 1.10,2013-06-17 16:14:00,
2013-06-17 12:29:00,74.7,70.0,30.07,SSW,207,5.0,10.0,85,0.00,,,0.10,weatherlink.com 1.10,2013-06-17 16:29:00,
2013-06-17 12:44:00,74.9,71.0,30.07,SE,146,8.0,10.0,87,0.00,,,0.10,weatherlink.com 1.10,2013-06-17 16:44:00,
2013-06-17 12:59:00,75.3,71.0,30.07,WSW,249,8.0,12.0,85,0.00,,,0.10,weatherlink.com 1.10,2013-06-17 16:59:00,
2013-06-17 13:14:00,75.5,70.0,30.07,SSW,202,4.0,10.0,84,0.00,,,0.10,weatherlink.com 1.10,2013-06-17 17:14:00,
2013-06-17 13:29:00,74.9,70.0,30.07,SE,139,5.0,13.0,84,0.00,,,0.10,weatherlink.com 1.10,2013-06-17 17:29:00,
2013-06-17 13:44:00,74.5,70.0,30.07,SE,129,5.0,12.0,85,0.00,,,0.10,weatherlink.com 1.10,2013-06-17 17:44:00,
2013-06-17 13:59:00,74.7,70.0,30.06,SE,129,7.0,10.0,85,0.00,,,0.10,weatherlink.com 1.10,2013-06-17 17:59:00,
2013-06-17 14:14:00,74.7,70.0,30.06,SSW,209,1.0,10.0,85,0.00,,,0.10,weatherlink.com 1.10,2013-06-17 18:14:00,
2013-06-17 14:29:00,75.6,71.0,30.04,SSE,161,2.0,7.0,84,0.00,,,0.10,weatherlink.com 1.10,2013-06-17 18:29:00,
2013-06-17 14:44:00,76.8,71.0,30.03,South,186,5.0,7.0,81,0.00,,,0.10,weatherlink.com 1.10,2013-06-17 18:44:00,
2013-06-17 15:14:00,77.2,70.0,30.02,SW,216,3.0,7.0,79,0.00,,,0.10,weatherlink.com 1.10,2013-06-17 19:14:00,
2013-06-17 15:28:00,78.0,71.0,30.01,South,188,2.0,7.0,78,0.00,,,0.10,weatherlink.com 1.10,2013-06-17 19:28:00,
2013-06-17 15:44:00,79.8,72.0,30.00,ESE,115,2.0,9.0,76,0.00,,,0.10,weatherlink.com 1.10,2013-06-17 19:44:00,
2013-06-17 15:59:00,80.1,70.0,29.99,SE,126,4.0,8.0,72,0.00,,,0.10,weatherlink.com 1.10,2013-06-17 19:59:00,
2013-06-17 16:14:00,81.4,71.0,30.00,SSE,156,2.0,8.0,71,0.00,,,0.10,weatherlink.com 1.10,2013-06-17 20:14:00,
2013-06-17 16:29:00,80.5,69.0,29.99,South,175,3.0,12.0,69,0.00,,,0.10,weatherlink.com 1.10,2013-06-17 20:29:00,
2013-06-17 16:44:00,81.8,70.0,29.98,East,100,2.0,9.0,68,0.00,,,0.10,weatherlink.com 1.10,2013-06-17 20:44:00,
2013-06-17 16:59:00,81.9,70.0,29.99,SW,230,5.0,10.0,67,0.00,,,0.10,weatherlink.com 1.10,2013-06-17 20:59:00,
2013-06-17 17:14:00,81.9,70.0,29.99,SW,229,3.0,8.0,68,0.00,,,0.10,weatherlink.com 1.10,2013-06-17 21:14:00,
2013-06-17 17:29:00,81.6,70.0,29.98,SE,144,0.0,8.0,68,0.00,,,0.10,weatherlink.com 1.10,2013-06-17 21:29:00,
2013-06-17 17:44:00,81.1,69.0,29.98,WSW,245,5.0,9.0,67,0.00,,,0.10,weatherlink.com 1.10,2013-06-17 21:44:00,
2013-06-17 17:59:00,81.7,69.0,29.98,South,191,0.0,8.0,65,0.00,,,0.10,weatherlink.com 1.10,2013-06-17 21:59:00,
2013-06-17 18:14:00,80.5,68.0,29.98,WSW,247,6.0,9.0,66,0.00,,,0.10,weatherlink.com 1.10,2013-06-17 22:14:00,
2013-06-17 18:29:00,79.6,68.0,29.98,SW,236,4.0,9.0,67,0.00,,,0.10,weatherlink.com 1.10,2013-06-17 22:29:00,
2013-06-17 18:44:00,79.2,68.0,29.98,West,275,3.0,8.0,68,0.00,,,0.10,weatherlink.com 1.10,2013-06-17 22:44:00,
2013-06-17 18:59:00,78.9,68.0,29.98,WSW,256,6.0,9.0,69,0.00,,,0.10,weatherlink.com 1.10,2013-06-17 22:59:00,
2013-06-17 19:14:00,78.6,68.0,29.98,WSW,255,5.0,9.0,71,0.00,,,0.10,weatherlink.com 1.10,2013-06-17 23:14:00,
2013-06-17 19:29:00,78.4,69.0,29.98,West,274,4.0,10.0,72,0.00,,,0.10,weatherlink.com 1.10,2013-06-17 23:29:00,
2013-06-17 19:44:00,78.5,69.0,29.98,West,278,3.0,8.0,73,0.00,,,0.10,weatherlink.com 1.10,2013-06-17 23:44:00,
2013-06-17 19:59:00,78.3,69.0,29.97,SW,232,3.0,7.0,74,0.00,,,0.10,weatherlink.com 1.10,2013-06-17 23:59:00,
2013-06-17 20:14:00,78.1,70.0,29.97,West,274,4.0,7.0,75,0.00,,,0.10,weatherlink.com 1.10,2013-06-18 00:14:00,
2013-06-17 20:29:00,77.8,70.0,29.98,SSE,167,3.0,6.0,77,0.00,,,0.10,weatherlink.com 1.10,2013-06-18 00:29:00,
2013-06-17 20:44:00,77.6,70.0,29.97,WSW,242,5.0,6.0,77,0.00,,,0.10,weatherlink.com 1.10,2013-06-18 00:44:00,
2013-06-17 20:59:00,77.4,70.0,29.97,South,174,1.0,6.0,79,0.00,,,0.10,weatherlink.com 1.10,2013-06-18 00:59:00,
2013-06-17 21:14:00,77.3,70.0,29.96,South,178,2.0,6.0,79,0.00,,,0.10,weatherlink.com 1.10,2013-06-18 01:14:00,
2013-06-17 21:29:00,77.0,70.0,29.96,SSE,167,3.0,4.0,80,0.00,,,0.10,weatherlink.com 1.10,2013-06-18 01:29:00,
2013-06-17 21:44:00,76.7,71.0,29.96,WSW,243,4.0,4.0,81,0.00,,,0.10,weatherlink.com 1.10,2013-06-18 01:44:00,
2013-06-17 22:00:00,76.6,70.0,29.96,WSW,239,4.0,7.0,80,0.00,,,0.10,weatherlink.com 1.10,2013-06-18 02:00:00,
2013-06-17 22:14:00,76.4,70.0,29.97,SW,233,4.0,8.0,81,0.00,,,0.10,weatherlink.com 1.10,2013-06-18 02:14:00,
2013-06-17 22:30:00,76.2,70.0,29.98,SW,215,3.0,7.0,82,0.00,,,0.10,weatherlink.com 1.10,2013-06-18 02:30:00,
2013-06-17 22:45:00,75.5,70.0,29.98,WSW,255,2.0,7.0,83,0.00,,,0.10,weatherlink.com 1.10,2013-06-18 02:45:00,
2013-06-17 23:00:00,75.2,70.0,29.98,SSW,207,3.0,6.0,84,0.00,,,0.10,weatherlink.com 1.10,2013-06-18 03:00:00,
2013-06-17 23:15:00,74.8,70.0,29.98,SW,224,5.0,6.0,85,0.00,,,0.10,weatherlink.com 1.10,2013-06-18 03:15:00,
2013-06-17 23:30:00,74.8,70.0,29.98,West,269,3.0,12.0,84,0.00,,,0.10,weatherlink.com 1.10,2013-06-18 03:30:00,
2013-06-17 23:45:00,74.3,70.0,29.98,West,269,5.0,8.0,85,0.00,,,0.10,weatherlink.com 1.10,2013-06-18 03:45:00,